Regional Weather Roundup
Issued by NWS State College, PA

Home | Current Version | Previous Version | Text Only | Print | Product List | Glossary Off
Versions: 1 2 3 4 5 6 7 8 9 10 11 12 13 14 15 16 17 18 19 20 21 22 23 24 25 26 27 28 29 30 31 32 33 34 35 36 37 38 39 40 41 42 43 44 45 46 47 48 49 50

000
ASUS41 KCTP 262210
RWRCTP

REGIONAL WEATHER ROUNDUP
NATIONAL WEATHER SERVICE STATE COLLEGE PA
600 PM EDT TUE MAY 26 2015

Note: "fair" indicates few or no clouds below 12,000 feet with no
significant weather and/or obstructions to visibility.

* = STATION THAT DOES NOT REPORT PRECIPITATION /E.G. RAIN...SNOW...ETC/
    THUNDER OR FOG.

PAZ002>004-007>009-013>016-020>023-029>032-262300-
WESTERN PENNSYLVANIA

CITY           SKY/WX    TMP DP  RH WIND       PRES   REMARKS
ERIE           MOSUNNY   82  61  48 S10       30.01F
MEADVILLE      MOSUNNY   78  62  57 VRB3      30.06F
FRANKLIN*      PTSUNNY   75  61  60 S12       30.10F
NEW CASTLE     MOCLDY    82  67  60 VRB6      30.07F
BEAVER COUNTY  MOSUNNY   79  64  61 SE12G20   30.08F
BUTLER*        MOSUNNY   77  63  61 S9G16     30.12F
PITTSBURGH INT MOSUNNY   80  66  62 S10G18    30.09F
PITTSBURGH     MOSUNNY   79  62  56 S10       30.10S
INDIANA*       SUNNY     79  66  65 VRB6      30.15F
LATROBE        MOSUNNY   82  63  51 S8G18     30.13F
WASHINGTON CO* SUNNY     79  64  61 S7        30.12F
$$

PAZ004>006-010>012-017>019-024>028-033>037-041-042-045-046-049>053-262300-
CENTRAL PENNSYLVANIA

CITY           SKY/WX    TMP DP  RH WIND       PRES   REMARKS
BRADFORD       PTSUNNY   73  61  65 SW9G17    30.14F
DUBOIS         PTSUNNY   75  63  66 S7        30.13F
CLEARFIELD     PTSUNNY   74  63  68 S7        30.14F
JOHNSTOWN      MOSUNNY   74  62  66 SE12      30.16F
ALTOONA        MOSUNNY   80  61  52 S12       30.16F
STATE COLLEGE  MOSUNNY   79  64  61 SW7       30.12F
WILLIAMSPORT   PTSUNNY   75  69  81 CALM      30.11F
SELINSGROVE    PTSUNNY   85  64  49 S8G20     30.11F
FT INDIANTOWN  MOSUNNY   85  64  48 SW10      30.12F
CAPITAL CITY   PTSUNNY   83  63  50 S8        30.12F
HARRISBURG     PTSUNNY   84  64  50 VRB5      30.12S
YORK           CLOUDY    83  65  54 S5        30.14F
$$

PAZ038>040-043-044-047-048-054-055-060>062-067>071-262300-
EASTERN PENNSYLVANIA

CITY           SKY/WX    TMP DP  RH WIND       PRES   REMARKS
SCRANTON       PTSUNNY   84  62  47 VRB7      30.12F
MOUNT POCONO   PTSUNNY   81  59  47 S12       30.19F
ALLENTOWN      MOSUNNY   87  60  40 S9        30.12F
QUAKERTOWN*    PTCLDY    86  59  39 SW8       30.15F
READING        PTSUNNY   86  63  45 S10       30.12S
LANCASTER      PTSUNNY   82  66  58 S13       30.13F
COATESVILLE    PTCLDY    81  66  61 S5        30.17F
POTTSTOWN      MOSUNNY   83  63  50 S9        30.15F
BLUE BELL      MOSUNNY   86  61  42 SW8G16    30.14F
DOYLESTOWN     MOSUNNY   83  59  44 S9G17     30.13F
WILLOW GROVE   NOT AVBL
NORTH PHILA    SUNNY     86  58  38 SW13      30.15F
PHILADELPHIA   PTSUNNY   87  62  43 SW13      30.14F
$$



USA.gov is the U.S. government's official web portal to all federal, state and local government web resources and services.